Location: Banff
(51.1667°N, 115.5667°W)
Time: 04:22:51
(UTC+00:00)

Explorer 7 - Pass Details

Date: 04 December 2020
Orbit: 484 x 678 km, 50.3° (Epoch: 16 January)

Event Time Altitude Azimuth Distance (km) Brightness Sun altitude
Exits shadow 13:06:39 29° 204° (SSW) 1,038 8.0 -21.2°
Drops below altitude 10° 13:09:52 10° 153° (SSE) 1,780 9.9 -20.7°
Sets 13:12:12 0° 141° (SE) 2,635 11.1 -20.4°
